sat.trackr.live / text

‹ back to catalog

STARLINK-11269 [DTC]

NORAD 60995 · 2024-158F

PAYLOAD ACTIVE UNKNOWN

§ Identity

Operator
Country
US
Launch date
2024-09-05
Launch site
AFETR
Launch vehicle
Mass (kg)
RCS (m²)

Purposes: comms

External: N2YO · Heavens-Above · Gunter

§ Orbital elements

Epoch: 2026-09-21T16:17:08.767680Z

Period
91.74 min
Inclination
53.1606°
Eccentricity
0.0000981
Mean motion
15.69697912 rev/d
Perigee alt
359.1 km
Apogee alt
360.4 km
Semi-major
6,737.9 km
B*
9.9979e-6
RAAN
35.3507°
Arg perigee
91.5449°
Mean anomaly
268.5682°
Rev number
11,836

§ Raw data

STARLINK-11269 [DTC]1 60995U 24158F   26264.67857370  .00000622  00000+0  99979-5 0  99992 60995  53.1606  35.3507 0000981  91.5449 268.5682 15.69697912118366

JSON: /api/v1/satellites/60995 · /tle

For live sub-satellite position, see the globe view (requires WebGL).

§ Visibility from observer

Set your observer location to see the next 7 days of passes ≥ 10°. The values pass through the URL so the page stays shareable.

No JS? Fill the form by hand. The geolocation button needs JavaScript.